Weather Roundup
Issued by NWS

Home | Current Version | Previous Version | Graphics & Text | Print | Product List | Glossary Off
Versions: 1 2 3 4 5 6 7 8 9 10 11 12 13 14 15 16 17 18 19 20 21 22 23 24 25 26 27 28 29 30 31 32 33 34 35 36 37 38 39 40 41 42 43 44 45 46 47 48 49 50

268
NZUS93 KARX 201459
HRRWXR

CURRENT HOURLY OBSERVATIONS ACROSS
MUCH OF THE UPPER MISSISSIPPI VALLEY
NATIONAL WEATHER SERVICE LA CROSSE WI
900 AM CST FRI JAN 20 2017


...SOUTHEAST MINNESOTA...


CITY           SKY/WX    TMP DP  RH WIND       PRES   REMARKS
ROCHESTER      FOG       33  33 100 SE6       29.61S VSB 1/4 WCI  28
ROCHESTER/MAYO CLOUDY    34  34 100 E6        29.61S WCI  29
WINONA         CLOUDY    34  34 100 CALM      29.65S FOG
AUSTIN         FOG       34  32  93 SE6       29.59F VSB 1/4 WCI  29
ALBERT LEA     FOG       34  34 100 SE6       29.58F VSB<1/4 WCI  29
DODGE CENTER   FOG       34  34 100 CALM      29.60S VSB 1/2
PRESTON        FOG       33  32  97 E3        29.61F VSB 1
OWATONNA       FOG       34  34 100 SE7       29.59F VSB 1/2 WCI  28
FARIBAULT      FOG       34  34 100 E5        29.60F VSB 1/2 WCI  30
$$

...ELSEWHERE IN MINNESOTA...


CITY           SKY/WX    TMP DP  RH WIND       PRES   REMARKS
MINNEAPOLIS    DRIZZLE   35  33  92 SE8       29.62S FOG     WCI  29
INTNL FALLS    CLOUDY    34  33  96 SE6       29.61S FOG     WCI  29
DULUTH         DRIZZLE   35  34  96 E9        29.65S FOG     WCI  28
RED WING       FOG       36  34  93 SE6       29.63S VSB 1   WCI  31
REDWOOD FALLS  FOG       34  32  92 SE9       29.55S VSB 1   WCI  27
MANKATO        FOG       34  33  96 SE7       29.58F VSB 1   WCI  28
WORTHINGTON    FOG       34  34 100 SE9       29.53S VSB 1/2 WCI  27
FAIRMONT       FOG       33  33 100 SE6       29.57F VSB 1/4 WCI  28
$$

...SOUTHWEST WISCONSIN...


CITY           SKY/WX    TMP DP  RH WIND       PRES   REMARKS
LA CROSSE      FOG       36  34  92 CALM      29.65S VSB 1/4
PRAIRIE DU CHI FOG       35  34  96 CALM      29.63F VSB 3/4
BOSCOBEL       CLOUDY    37  36  96 NE5       29.65S FOG     WCI  33
LONE ROCK      NOT AVBL
PLATTEVILLE    CLOUDY    35  35 100 E8        29.63R VSB 3/4 WCI  29
FORT MC COY    CLOUDY    33  33 100 E3        29.66S FOG
CAMP DOUGLAS   CLOUDY    34  32  93 E3        29.65F FOG
MAUSTON-NEW LI FOG       34  34  99 CALM      29.65S VSB 1
VIROQUA        CLOUDY    34  34 100 E5        29.63R VSB 1/4 WCI  30
WIS DELLS      FOG       33  33  99 E6        29.65S VSB 3/4 WCI  28
$$

...ELSEWHERE IN WISCONSIN...


CITY           SKY/WX    TMP DP  RH WIND       PRES   REMARKS
MILWAUKEE      LGT RAIN  38  36  92 NE10      29.66S VSB 1/2 WCI  31
MADISON        LGT RAIN  35  34  96 E3        29.66S VSB 1
GREEN BAY      LGT RAIN  34  34 100 NE13      29.70F FOG     WCI  25
EAU CLAIRE     NOT AVBL
BLACK RVR FLS  CLOUDY    35  35 100 E3        29.65S FOG
MEDFORD        DRIZZLE   33  32  96 E5        29.66S WCI  28
WAUSAU         CLOUDY    33  32  96 E3        29.67S FOG
WIS RAPIDS     CLOUDY    34  34 100 E8        29.68S FOG     WCI  27
MARSHFIELD     LGT RAIN  33  31  92 E7        29.65S FOG     WCI  27
RICE LAKE      DRIZZLE   35  34  98 E5        29.67R WCI  30
$$

...NORTHEAST IOWA...


CITY           SKY/WX    TMP DP  RH WIND       PRES   REMARKS
WATERLOO       FOG       35  34  96 E6        29.62S VSB 3/4 WCI  30
DUBUQUE        FOG       36  35  96 E3        29.62R VSB 1/4
DECORAH        FOG       36  34  93 VRB5      29.61S VSB 3/4 WCI  32
MASON CITY     FOG       33  33 100 E8        29.60S VSB 1/4 WCI  26
CHARLES CITY   FOG       34  34 100 SE7       29.62R VSB<1/4 WCI  28
OELWEIN        FOG       34  34 100 SE6       29.63R VSB 3/4 WCI  29
$$

...ELSEWHERE IN IOWA...


CITY           SKY/WX    TMP DP  RH WIND       PRES   REMARKS
DES MOINES     FOG       37  37 100 S8        29.63R VSB 1/4 WCI  31
IOWA CITY      CLOUDY    37  36  96 E7        29.66R FOG     WCI  32
FORT DODGE     CLOUDY    34  30  86 SE3       29.60R VSB 1/4
MARSHALLTOWN   FOG       35  35 100 E7        29.60R VSB 1/4 WCI  29
CEDAR RAPIDS   FOG       35  35 100 SE6       29.63R VSB 1/4 WCI  30
$$

...NORTHERN ILLINOIS...


CITY           SKY/WX    TMP DP  RH WIND       PRES   REMARKS
CHICAGO-OHARE  CLOUDY    39  38  96 NE5       29.64R FOG
CHICAGO-MIDWAY CLOUDY    38  37  97 E5        29.65R FOG     WCI  34
MOLINE         FOG       38  37  97 CALM      29.64R VSB 1
ROCKFORD       CLOUDY    39  37  92 CALM      29.66R FOG
PEORIA         FOG       39  39 100 SW6       29.67R VSB 3/4 WCI  35
$$

NOTE: "FAIR" INDICATES FEW OR NO CLOUDS BELOW 12,000 FEET WITH NO
SIGNIFICANT WEATHER AND/OR OBSTRUCTIONS TO VISIBILITY. WIND
SPEEDS ARE IN MILES-PER-HOUR.




USA.gov is the U.S. government's official web portal to all federal, state and local government web resources and services.